Location: Bremen
(53.0793°N, 8.8017°E)
Time: 20:47:36
(UTC+02:00)

Envisat - Pass Details

Date: 07 March 2024
Orbit: 762 x 764 km, 98.3° (Epoch: 13 April)

Event Time Altitude Azimuth Distance (km) Brightness Sun altitude
Rises 02:34:13 0° 26° (NNE) 3,243 7.2 -36.3°
Reaches altitude 10° 02:37:19 10° 45° (NE) 2,310 6.2 -36.0°
Maximum altitude 02:40:42 18° 87° (E) 1,831 5.3 -35.7°
Enters shadow 02:41:06 18° 93° (E) 1,838 5.2 -35.6°
